This is the latest recevied weather packets stored in our database for station/object SQ9MHX-13. If no packets are shown the sender has not sent any weather packets the latest 1 day(s).
| Time | Temp. | Humidity | Pressure | Rain* | Wind** | Luminosity | Snow |
|---|---|---|---|---|---|---|---|
| 1778027698 | 15° C | 49% | 956.8 hPa | - | 0 m/s | - | - |
| 1778027408 | 15° C | 48% | 956.7 hPa | - | 0 m/s | - | - |
| 1778027101 | 15° C | 48% | 956.4 hPa | - | 0 m/s | - | - |
| 1778026802 | 15° C | 47% | 956.9 hPa | - | 0 m/s | - | - |
| 1778026503 | 15° C | 48% | 957 hPa | - | 0 m/s | - | - |
| 1778026205 | 13.89° C | 49% | 957.4 hPa | - | 0 m/s | - | - |
| 1778025906 | 15° C | 48% | 957.7 hPa | - | 0 m/s | - | - |
| 1778025608 | 13.89° C | 51% | 958.5 hPa | - | 0 m/s | - | - |
| 1778024712 | 15° C | 47% | 957.1 hPa | - | 0 m/s | - | - |
| 1778024413 | 15° C | 47% | 957.1 hPa | - | 0 m/s | - | - |
| 1778024115 | 15° C | 46% | 957 hPa | - | 0 m/s | - | - |
| 1778023816 | 15° C | 48% | 957.5 hPa | - | 0 m/s | - | - |
| 1778023221 | 15° C | 47% | 957.3 hPa | - | 0 m/s | - | - |
| 1778022920 | 15° C | 48% | 957.1 hPa | - | 0 m/s | - | - |
| 1778022323 | 15° C | 46% | 956.1 hPa | - | 0 m/s | - | - |
| 1778022024 | 16.11° C | 44% | 955.7 hPa | - | 0 m/s | - | - |
| 1778021726 | 16.11° C | 43% | 955.4 hPa | - | 0 m/s | - | - |
| 1778021427 | 16.11° C | 43% | 955.3 hPa | - | 0 m/s | - | - |
| 1778021128 | 16.11° C | 44% | 955.3 hPa | - | 0 m/s | - | - |
| 1778020830 | 16.11° C | 43% | 955.5 hPa | - | 0 m/s | - | - |
| 1778020531 | 16.11° C | 44% | 956.4 hPa | - | 0 m/s | - | - |
| 1778020233 | 16.11° C | 44% | 956.6 hPa | - | 0 m/s | - | - |
| 1778019934 | 15° C | 49% | 957.3 hPa | - | 0 m/s | - | - |
| 1778019635 | 13.89° C | 52% | 955.3 hPa | - | 0 m/s | - | - |
| 1778019337 | 17.22° C | 40% | 954.4 hPa | - | 0 m/s | - | - |
* Rain since midnight (hover to see other rain measurements)
** Current wind speed in m/s (hover to see current wind gust speed)